カタログに戻る

STARLINK-6118

運用中通信VLEO
NORAD 57106·PAYLOAD·🇺🇸 United States

打ち上げ Jun 23, 2023 から Cape Canaveral Space Force Station

Loading…

次のパス (今後24時間)

TLE

最新Source: CelesTrak SupGP

元期: Sep 15, 2026, 02:23 UTC

1 57106C 23090F   26258.09979167  .00013749  00000+0  49795-3 0  2582
2 57106  43.0001 291.9203 0001276 263.7984 312.3609 15.27574603    15

AllMySatでSTARLINK-6118をリアルタイム追跡

Download on the App Store